| time (UTC) | temp F | wind direction | speed MPH | gust MPH | rain 1hr in | rain 24hr in | rain mn in | humidity % | barometer mb |
| 20260902172636 | 72 | 160 | 2.0 | 7.0 | 0.00 | 0.00 | 0.00 | 70 | 1016.9 |
| 20260902172136 | 71 | 141 | 3.0 | 7.0 | 0.00 | 0.00 | 0.00 | 71 | 1017.0 |
| 20260902171627 | 71 | 157 | 2.0 | 6.0 | 0.00 | 0.00 | 0.00 | 71 | 1017.0 |
| 20260902171125 | 71 | 149 | 3.0 | 7.0 | 0.00 | 0.00 | 0.00 | 69 | 1017.1 |
| 20260902170843 | 71 | 229 | 2.0 | 7.0 | 0.00 | 0.00 | 0.00 | 73 | 1017.2 |
| 20260902170723 | 71 | 343 | 2.0 | 4.0 | 0.00 | 0.00 | 0.00 | 70 | 1017.2 |
| 20260902165825 | 71 | 285 | 2.0 | 5.0 | 0.00 | 0.00 | 0.00 | 72 | 1017.2 |
| 20260902165053 | 71 | 261 | 2.0 | 7.0 | 0.00 | 0.00 | 0.00 | 74 | 1017.4 |
| 20260902164601 | 71 | 194 | 2.0 | 7.0 | 0.00 | 0.00 | 0.00 | 71 | 1017.5 |
| 20260902164027 | 70 | 277 | 2.0 | 7.0 | 0.00 | 0.00 | 0.00 | 74 | 1017.5 |
| 20260902163505 | 70 | 242 | 1.0 | 5.0 | 0.00 | 0.00 | 0.00 | 75 | 1017.6 |
| 20260902162959 | 70 | 108 | 1.0 | 3.0 | 0.00 | 0.00 | 0.00 | 73 | 1017.8 |
| 20260902162443 | 70 | 130 | 2.0 | 4.0 | 0.00 | 0.00 | 0.00 | 74 | 1017.8 |
| 20260902161941 | 70 | 293 | 2.0 | 7.0 | 0.00 | 0.00 | 0.00 | 73 | 1018.0 |
| 20260902161440 | 70 | 248 | 2.0 | 7.0 | 0.00 | 0.00 | 0.00 | 73 | 1018.0 |
| 20260902161132 | 69 | 152 | 3.0 | 7.0 | 0.00 | 0.00 | 0.00 | 74 | 1018.2 |
| 20260902161009 | 69 | 351 | 3.0 | 7.0 | 0.00 | 0.00 | 0.00 | 76 | 1018.1 |
| 20260902155855 | 69 | 303 | 2.0 | 7.0 | 0.00 | 0.00 | 0.00 | 77 | 1018.1 |
| 20260902155324 | 69 | 278 | 2.0 | 5.0 | 0.00 | 0.00 | 0.00 | 78 | 1018.4 |
| 20260902154821 | 69 | 337 | 2.0 | 6.0 | 0.00 | 0.00 | 0.00 | 77 | 1018.3 |
| 20260902154320 | 68 | 271 | 3.0 | 7.0 | 0.00 | 0.00 | 0.00 | 76 | 1018.5 |
| 20260902153750 | 68 | 317 | 3.0 | 9.0 | 0.00 | 0.00 | 0.00 | 79 | 1018.6 |
| 20260902153223 | 68 | 299 | 3.0 | 9.0 | 0.00 | 0.00 | 0.00 | 80 | 1018.7 |
| 20260902152658 | 67 | 313 | 3.0 | 10.0 | 0.00 | 0.00 | 0.00 | 80 | 1018.7 |
| 20260902152427 | 66 | 285 | 4.0 | 10.0 | 0.00 | 0.00 | 0.00 | 79 | 1018.8 |
| 20260902151924 | 66 | 292 | 4.0 | 10.0 | 0.00 | 0.00 | 0.00 | 79 | 1018.9 |
| 20260902151120 | 66 | 289 | 5.0 | 10.0 | 0.00 | 0.00 | 0.00 | 80 | 1018.9 |
| 20260902150821 | 66 | 306 | 4.0 | 9.0 | 0.00 | 0.00 | 0.00 | 81 | 1018.9 |
| 20260902150049 | 65 | 293 | 4.0 | 9.0 | 0.00 | 0.00 | 0.00 | 81 | 1018.9 |
| 20260902145547 | 65 | 304 | 4.0 | 9.0 | 0.00 | 0.00 | 0.00 | 81 | 1019.0 |
| 20260902145019 | 65 | 249 | 3.0 | 10.0 | 0.00 | 0.00 | 0.00 | 82 | 1019.0 |
| 20260902144739 | 64 | 280 | 4.0 | 10.0 | 0.00 | 0.00 | 0.00 | 84 | 1019.1 |
| 20260902144237 | 64 | 258 | 5.0 | 10.0 | 0.00 | 0.00 | 0.00 | 82 | 1019.2 |
| 20260902143438 | 64 | 230 | 5.0 | 9.0 | 0.00 | 0.00 | 0.00 | 81 | 1019.2 |
| 20260902142908 | 64 | 285 | 4.0 | 9.0 | 0.00 | 0.00 | 0.00 | 82 | 1019.2 |
| 20260902142343 | 64 | 247 | 4.0 | 9.0 | 0.00 | 0.00 | 0.00 | 82 | 1019.3 |
| 20260902141819 | 64 | 329 | 4.0 | 9.0 | 0.00 | 0.00 | 0.00 | 81 | 1019.2 |
| 20260902141251 | 64 | 262 | 4.0 | 8.0 | 0.00 | 0.00 | 0.00 | 82 | 1019.4 |
| 20260902140739 | 64 | 294 | 4.0 | 8.0 | 0.00 | 0.00 | 0.00 | 82 | 1019.4 |
| 20260902140236 | 64 | 247 | 3.0 | 7.0 | 0.00 | 0.00 | 0.00 | 83 | 1019.6 |
| 20260902135958 | 63 | 347 | 3.0 | 9.0 | 0.00 | 0.00 | 0.00 | 83 | 1019.5 |
| 20260902135223 | 63 | 310 | 4.0 | 9.0 | 0.00 | 0.00 | 0.00 | 83 | 1019.5 |
| 20260902134723 | 63 | 330 | 4.0 | 9.0 | 0.00 | 0.00 | 0.00 | 85 | 1019.6 |
| 20260902134436 | 63 | 254 | 4.0 | 9.0 | 0.00 | 0.00 | 0.00 | 83 | 1019.6 |
| 20260902133704 | 63 | 6 | 3.0 | 8.0 | 0.00 | 0.00 | 0.00 | 85 | 1019.6 |
| 20260902133140 | 63 | 357 | 3.0 | 8.0 | 0.00 | 0.00 | 0.00 | 84 | 1019.7 |
| 20260902132846 | 62 | 271 | 3.0 | 7.0 | 0.00 | 0.00 | 0.00 | 86 | 1019.5 |
| 20260902132318 | 62 | 308 | 3.0 | 8.0 | 0.00 | 0.00 | 0.00 | 85 | 1019.5 |
| 20260902131530 | 62 | 340 | 3.0 | 8.0 | 0.00 | 0.00 | 0.00 | 86 | 1019.7 |
| 20260902131028 | 61 | 337 | 3.0 | 8.0 | 0.00 | 0.00 | 0.00 | 88 | 1019.7 |
| 20260902130527 | 61 | 283 | 4.0 | 8.0 | 0.00 | 0.00 | 0.00 | 87 | 1019.8 |
| 20260902130028 | 60 | 20 | 4.0 | 8.0 | 0.00 | 0.00 | 0.00 | 87 | 1019.8 |
| 20260902125500 | 60 | 293 | 3.0 | 8.0 | 0.00 | 0.00 | 0.00 | 87 | 1019.8 |
| 20260902124933 | 60 | 264 | 3.0 | 8.0 | 0.00 | 0.05 | 0.00 | 88 | 1020.0 |
| 20260902124426 | 60 | 328 | 3.0 | 8.0 | 0.00 | 0.05 | 0.00 | 88 | 1020.0 |
| 20260902123926 | 60 | 324 | 4.0 | 8.0 | 0.00 | 0.05 | 0.00 | 88 | 1020.0 |
| 20260902123424 | 60 | 264 | 3.0 | 8.0 | 0.00 | 0.05 | 0.00 | 88 | 1019.9 |
| 20260902122924 | 60 | 339 | 3.0 | 7.0 | 0.00 | 0.05 | 0.00 | 88 | 1020.1 |
| 20260902122422 | 60 | 312 | 2.0 | 7.0 | 0.00 | 0.05 | 0.00 | 89 | 1020.2 |
| 20260902121922 | 60 | 320 | 3.0 | 10.0 | 0.00 | 0.05 | 0.00 | 92 | 1020.2 |
| 20260902121421 | 60 | 304 | 4.0 | 10.0 | 0.00 | 0.05 | 0.00 | 93 | 1020.1 |
| 20260902121126 | 59 | 329 | 2.0 | 8.0 | 0.00 | 0.05 | 0.00 | 95 | 1019.9 |
| 20260902120329 | 58 | 283 | 1.0 | 7.0 | 0.00 | 0.05 | 0.00 | 97 | 1019.7 |
| 20260902115826 | 58 | 204 | 0.0 | 1.0 | 0.00 | 0.05 | 0.00 | 98 | 1019.7 |
| 20260902115258 | 57 | 152 | 0.0 | 2.0 | 0.00 | 0.05 | 0.00 | 99 | 1019.7 |
| 20260902114756 | 57 | 133 | 0.0 | 2.0 | 0.00 | 0.05 | 0.00 | 99 | 1019.5 |
| 20260902114528 | 56 | 129 | 0.0 | 2.0 | 0.00 | 0.05 | 0.00 | 99 | 1019.5 |
| 20260902113757 | 56 | 153 | 0.0 | 2.0 | 0.00 | 0.05 | 0.00 | 99 | 1019.6 |
| 20260902113254 | 56 | 114 | 0.0 | 2.0 | 0.00 | 0.05 | 0.00 | 99 | 1019.7 |
| 20260902112753 | 55 | 112 | 0.0 | 0.0 | 0.00 | 0.05 | 0.00 | 99 | 1019.5 |
| 20260902112515 | 55 | 177 | 0.0 | 1.0 | 0.00 | 0.05 | 0.00 | 99 | 1019.6 |
| 20260902111743 | 54 | 145 | 0.0 | 1.0 | 0.00 | 0.05 | 0.00 | 99 | 1019.5 |
| 20260902111217 | 54 | 60 | 0.0 | 0.0 | 0.00 | 0.05 | 0.00 | 99 | 1019.5 |
| 20260902110647 | 53 | 70 | 0.0 | 0.0 | 0.00 | 0.05 | 0.00 | 99 | 1019.5 |
| 20260902110121 | 52 | 222 | 0.0 | 0.0 | 0.00 | 0.05 | 0.00 | 99 | 1019.3 |
| 20260902105547 | 51 | 222 | 0.0 | 0.0 | 0.00 | 0.05 | 0.00 | 99 | 1019.3 |
| 20260902105021 | 51 | 222 | 0.0 | 0.0 | 0.00 | 0.05 | 0.00 | 98 | 1019.4 |
| 20260902104454 | 50 | 222 | 0.0 | 0.0 | 0.00 | 0.06 | 0.00 | 98 | 1019.3 |
| 20260902103953 | 49 | 222 | 0.0 | 0.0 | 0.00 | 0.06 | 0.00 | 98 | 1019.2 |
| 20260902103450 | 48 | 222 | 0.0 | 0.0 | 0.00 | 0.06 | 0.00 | 98 | 1019.2 |
| 20260902102948 | 48 | 222 | 0.0 | 0.0 | 0.00 | 0.06 | 0.00 | 98 | 1019.1 |
| 20260902102716 | 47 | 222 | 0.0 | 0.0 | 0.00 | 0.06 | 0.00 | 98 | 1019.1 |
| 20260902102215 | 47 | 222 | 0.0 | 0.0 | 0.00 | 0.06 | 0.00 | 97 | 1019.1 |
| 20260902101418 | 47 | 222 | 0.0 | 0.0 | 0.00 | 0.06 | 0.00 | 97 | 1019.1 |
| 20260902100917 | 47 | 222 | 0.0 | 0.0 | 0.00 | 0.06 | 0.00 | 97 | 1019.0 |
| 20260902100416 | 47 | 222 | 0.0 | 0.0 | 0.00 | 0.06 | 0.00 | 97 | 1019.0 |
| 20260902095924 | 47 | 222 | 0.0 | 0.0 | 0.00 | 0.06 | 0.00 | 97 | 1018.9 |
| 20260902095916 | 47 | 222 | 0.0 | 0.0 | 0.00 | 0.06 | 0.00 | 97 | 1019.0 |
| 20260902095143 | 47 | 168 | 0.0 | 0.0 | 0.00 | 0.06 | 0.00 | 97 | 1018.8 |
| 20260902094410 | 47 | 168 | 0.0 | 0.0 | 0.00 | 0.06 | 0.00 | 97 | 1018.8 |
| 20260902093909 | 47 | 168 | 0.0 | 0.0 | 0.00 | 0.06 | 0.00 | 97 | 1018.8 |
| 20260902093407 | 47 | 168 | 0.0 | 0.0 | 0.00 | 0.06 | 0.00 | 97 | 1018.7 |
| 20260902092855 | 47 | 168 | 0.0 | 0.0 | 0.00 | 0.06 | 0.00 | 97 | 1018.6 |
| 20260902092849 | 47 | 168 | 0.0 | 0.0 | 0.00 | 0.06 | 0.00 | 97 | 1018.5 |
| 20260902092229 | 48 | 168 | 0.0 | 0.0 | 0.00 | 0.06 | 0.00 | 97 | 1018.3 |
| 20260902092119 | 48 | 168 | 0.0 | 0.0 | 0.00 | 0.06 | 0.00 | 97 | 1018.4 |
| 20260902090839 | 48 | 168 | 0.0 | 0.0 | 0.00 | 0.06 | 0.00 | 97 | 1018.3 |
| 20260902090333 | 48 | 168 | 0.0 | 0.0 | 0.00 | 0.06 | 0.00 | 97 | 1018.1 |
| 20260902085807 | 48 | 168 | 0.0 | 0.0 | 0.00 | 0.06 | 0.00 | 97 | 1018.0 |
| 20260902085254 | 49 | 168 | 0.0 | 0.0 | 0.00 | 0.06 | 0.00 | 97 | 1018.0 |
| 20260902084753 | 49 | 168 | 0.0 | 0.0 | 0.00 | 0.06 | 0.00 | 97 | 1017.8 |
| 20260902084240 | 48 | 168 | 0.0 | 0.0 | 0.00 | 0.06 | 0.00 | 97 | 1017.8 |
| 20260902083737 | 48 | 114 | 0.0 | 0.0 | 0.00 | 0.06 | 0.00 | 97 | 1017.7 |
| 20260902083234 | 48 | 114 | 0.0 | 0.0 | 0.00 | 0.06 | 0.00 | 96 | 1017.6 |
| 20260902082733 | 49 | 114 | 0.0 | 0.0 | 0.00 | 0.06 | 0.00 | 96 | 1017.8 |
| 20260902082210 | 49 | 114 | 0.0 | 0.0 | 0.00 | 0.06 | 0.00 | 96 | 1017.7 |
| 20260902081700 | 49 | 114 | 0.0 | 0.0 | 0.00 | 0.06 | 0.00 | 96 | 1017.7 |
| 20260902081426 | 49 | 115 | 0.0 | 0.0 | 0.00 | 0.06 | 0.00 | 96 | 1017.9 |
| 20260902080636 | 49 | 114 | 0.0 | 0.0 | 0.00 | 0.07 | 0.00 | 96 | 1017.8 |
| 20260902080106 | 49 | 115 | 0.0 | 0.0 | 0.00 | 0.07 | 0.00 | 96 | 1017.7 |
| 20260902075549 | 50 | 114 | 0.0 | 0.0 | 0.00 | 0.07 | 0.00 | 96 | 1017.6 |
| 20260902075047 | 50 | 114 | 0.0 | 0.0 | 0.00 | 0.07 | 0.00 | 96 | 1017.6 |
| 20260902075025 | 50 | 114 | 0.0 | 0.0 | 0.00 | 0.07 | 0.00 | 96 | 1017.5 |
| 20260902074020 | 50 | 114 | 0.0 | 0.0 | 0.00 | 0.07 | 0.00 | 96 | 1017.6 |
| 20260902073521 | 51 | 114 | 0.0 | 0.0 | 0.00 | 0.07 | 0.00 | 97 | 1017.7 |
| 20260902073016 | 51 | 114 | 0.0 | 0.0 | 0.00 | 0.07 | 0.00 | 97 | 1017.6 |
| 20260902072446 | 51 | 114 | 0.0 | 0.0 | 0.00 | 0.07 | 0.00 | 97 | 1017.7 |
| 20260902071950 | 51 | 114 | 0.0 | 0.0 | 0.00 | 0.07 | 0.00 | 96 | 1017.7 |
| 20260902071420 | 51 | 114 | 0.0 | 0.0 | 0.00 | 0.07 | 0.00 | 96 | 1017.8 |
| 20260902070910 | 51 | 114 | 0.0 | 0.0 | 0.00 | 0.07 | 0.00 | 95 | 1017.7 |
| 20260902070400 | 51 | 114 | 0.0 | 0.0 | 0.00 | 0.07 | 0.00 | 95 | 1017.8 |
| 20260902065859 | 51 | 114 | 0.0 | 0.0 | 0.00 | 0.07 | 0.00 | 95 | 1017.8 |
| 20260902065629 | 51 | 114 | 0.0 | 0.0 | 0.00 | 0.07 | 0.00 | 95 | 1017.8 |
| 20260902065126 | 51 | 115 | 0.0 | 0.0 | 0.00 | 0.07 | 0.00 | 95 | 1017.9 |
| 20260902065006 | 51 | 114 | 0.0 | 0.0 | 0.00 | 0.07 | 0.00 | 95 | 1017.8 |
| 20260902063853 | 52 | 115 | 0.0 | 0.0 | 0.00 | 0.07 | 0.00 | 95 | 1017.8 |
| 20260902063352 | 52 | 114 | 0.0 | 0.0 | 0.00 | 0.07 | 0.00 | 95 | 1018.1 |
| 20260902062850 | 52 | 114 | 0.0 | 0.0 | 0.00 | 0.07 | 0.00 | 95 | 1018.1 |
| 20260902062351 | 52 | 114 | 0.0 | 0.0 | 0.00 | 0.07 | 0.00 | 95 | 1018.0 |
| 20260902061850 | 53 | 115 | 0.0 | 0.0 | 0.00 | 0.07 | 0.00 | 95 | 1018.0 |
| 20260902061351 | 53 | 114 | 0.0 | 0.0 | 0.00 | 0.07 | 0.00 | 95 | 1018.1 |
| 20260902060825 | 53 | 114 | 0.0 | 0.0 | 0.00 | 0.07 | 0.00 | 95 | 1018.0 |
| 20260902060528 | 53 | 114 | 0.0 | 0.0 | 0.00 | 0.07 | 0.00 | 95 | 1018.0 |
| 20260902055735 | 54 | 114 | 0.0 | 0.0 | 0.00 | 0.07 | 0.00 | 95 | 1018.0 |
| 20260902055234 | 54 | 114 | 0.0 | 0.0 | 0.00 | 0.07 | 0.00 | 96 | 1018.0 |
| 20260902055002 | 54 | 114 | 0.0 | 0.0 | 0.00 | 0.07 | 0.00 | 95 | 1018.0 |
| 20260902054230 | 55 | 114 | 0.0 | 0.0 | 0.00 | 0.07 | 0.00 | 96 | 1018.1 |
| 20260902054001 | 55 | 114 | 0.0 | 0.0 | 0.00 | 0.07 | 0.00 | 96 | 1018.1 |
| 20260902053224 | 55 | 114 | 0.0 | 0.0 | 0.00 | 0.07 | 0.00 | 96 | 1018.1 |
| 20260902052657 | 55 | 114 | 0.0 | 0.0 | 0.00 | 0.07 | 0.00 | 96 | 1018.3 |
| 20260902052156 | 55 | 114 | 0.0 | 0.0 | 0.00 | 0.07 | 0.00 | 96 | 1018.4 |
| 20260902051656 | 55 | 114 | 0.0 | 0.0 | 0.00 | 0.07 | 0.00 | 96 | 1018.5 |
| 20260902051147 | 55 | 114 | 0.0 | 0.0 | 0.00 | 0.07 | 0.00 | 96 | 1018.6 |
| 20260902051140 | 55 | 114 | 0.0 | 0.0 | 0.00 | 0.07 | 0.00 | 96 | 1018.5 |
| 20260902050113 | 55 | 114 | 0.0 | 0.0 | 0.00 | 0.07 | 0.00 | 96 | 1018.5 |
| 20260902045546 | 55 | 114 | 0.0 | 0.0 | 0.00 | 0.07 | 0.00 | 96 | 1018.6 |
| 20260902045030 | 55 | 114 | 0.0 | 0.0 | 0.00 | 0.07 | 0.00 | 96 | 1018.7 |
| 20260902044526 | 55 | 114 | 0.0 | 0.0 | 0.00 | 0.07 | 0.00 | 96 | 1018.6 |
| 20260902044023 | 55 | 114 | 0.0 | 0.0 | 0.00 | 0.07 | 0.00 | 96 | 1018.7 |
| 20260902043518 | 55 | 114 | 0.0 | 0.0 | 0.00 | 0.07 | 0.00 | 95 | 1018.7 |
| 20260902043010 | 55 | 114 | 0.0 | 0.0 | 0.00 | 0.07 | 0.00 | 95 | 1018.6 |
| 20260902042508 | 55 | 114 | 0.0 | 0.0 | 0.00 | 0.07 | 0.00 | 94 | 1018.5 |
| 20260902041935 | 55 | 114 | 0.0 | 0.0 | 0.00 | 0.07 | 0.00 | 94 | 1018.5 |
| 20260902041424 | 56 | 114 | 0.0 | 0.0 | 0.00 | 0.07 | 0.00 | 93 | 1018.5 |
| 20260902040912 | 56 | 114 | 0.0 | 0.0 | 0.00 | 0.07 | 0.00 | 92 | 1018.5 |
| 20260902040411 | 56 | 114 | 0.0 | 0.0 | 0.00 | 0.07 | 0.00 | 92 | 1018.6 |
| 20260902035844 | 56 | 114 | 0.0 | 0.0 | 0.00 | 0.07 | 0.00 | 93 | 1018.6 |
| 20260902035320 | 56 | 114 | 0.0 | 0.0 | 0.00 | 0.07 | 0.00 | 93 | 1018.6 |
| 20260902035038 | 57 | 114 | 0.0 | 0.0 | 0.00 | 0.07 | 0.00 | 93 | 1018.6 |
| 20260902034307 | 57 | 115 | 0.0 | 0.0 | 0.00 | 0.07 | 0.00 | 93 | 1018.7 |
| 20260902033804 | 57 | 114 | 0.0 | 0.0 | 0.00 | 0.07 | 0.00 | 93 | 1018.7 |
| 20260902033238 | 57 | 114 | 0.0 | 0.0 | 0.00 | 0.07 | 0.00 | 93 | 1018.7 |
| 20260902032942 | 58 | 114 | 0.0 | 0.0 | 0.00 | 0.07 | 0.00 | 94 | 1018.6 |
| 20260902032142 | 58 | 114 | 1.0 | 3.0 | 0.00 | 0.07 | 0.00 | 94 | 1018.6 |
| 20260902031639 | 58 | 114 | 1.0 | 3.0 | 0.00 | 0.07 | 0.00 | 94 | 1018.6 |
| 20260902031138 | 58 | 96 | 0.0 | 2.0 | 0.00 | 0.07 | 0.00 | 95 | 1018.7 |
| 20260902030633 | 58 | 187 | 0.0 | 1.0 | 0.00 | 0.07 | 0.00 | 95 | 1018.7 |
| 20260902030354 | 58 | 172 | 0.0 | 1.0 | 0.00 | 0.07 | 0.00 | 95 | 1018.8 |
| 20260902025614 | 58 | 172 | 0.0 | 1.0 | 0.00 | 0.07 | 0.07 | 95 | 1018.9 |
| 20260902025116 | 58 | 177 | 0.0 | 1.0 | 0.00 | 0.07 | 0.07 | 95 | 1018.9 |
| 20260902024549 | 58 | 135 | 0.0 | 1.0 | 0.00 | 0.07 | 0.07 | 95 | 1018.8 |
| 20260902024044 | 58 | 135 | 0.0 | 1.0 | 0.00 | 0.07 | 0.07 | 95 | 1018.8 |
| 20260902023542 | 58 | 135 | 0.0 | 3.0 | 0.00 | 0.07 | 0.07 | 95 | 1018.8 |
| 20260902023017 | 58 | 135 | 0.0 | 3.0 | 0.00 | 0.07 | 0.07 | 95 | 1018.7 |
| 20260902022455 | 58 | 133 | 1.0 | 4.0 | 0.00 | 0.07 | 0.07 | 96 | 1018.8 |
| 20260902021930 | 58 | 97 | 1.0 | 4.0 | 0.00 | 0.07 | 0.07 | 96 | 1018.9 |
| 20260902021403 | 58 | 99 | 0.0 | 3.0 | 0.00 | 0.07 | 0.07 | 96 | 1018.8 |
| 20260902021115 | 59 | 112 | 0.0 | 0.0 | 0.00 | 0.07 | 0.07 | 97 | 1018.8 |
| 20260902020318 | 59 | 112 | 0.0 | 0.0 | 0.00 | 0.07 | 0.07 | 97 | 1018.8 |
| 20260902015813 | 59 | 112 | 0.0 | 3.0 | 0.00 | 0.07 | 0.07 | 97 | 1018.7 |
| 20260902015312 | 59 | 112 | 1.0 | 4.0 | 0.00 | 0.07 | 0.07 | 97 | 1018.6 |
| 20260902015043 | 59 | 120 | 2.0 | 5.0 | 0.00 | 0.07 | 0.07 | 97 | 1018.5 |
| 20260902014245 | 59 | 102 | 1.0 | 5.0 | 0.00 | 0.07 | 0.07 | 97 | 1018.6 |
| 20260902013727 | 59 | 118 | 0.0 | 0.0 | 0.00 | 0.07 | 0.07 | 98 | 1018.6 |
| 20260902013230 | 59 | 128 | 0.0 | 0.0 | 0.00 | 0.07 | 0.07 | 97 | 1018.6 |
| 20260902012702 | 59 | 128 | 0.0 | 0.0 | 0.00 | 0.07 | 0.07 | 97 | 1018.6 |
| 20260902012203 | 58 | 128 | 0.0 | 0.0 | 0.00 | 0.07 | 0.07 | 97 | 1018.5 |
| 20260902011650 | 58 | 128 | 0.0 | 1.0 | 0.00 | 0.07 | 0.07 | 97 | 1018.5 |
| 20260902011145 | 58 | 58 | 0.0 | 1.0 | 0.00 | 0.07 | 0.07 | 97 | 1018.4 |
| 20260902010918 | 58 | 58 | 0.0 | 0.0 | 0.00 | 0.07 | 0.07 | 96 | 1018.2 |
| 20260902010142 | 58 | 58 | 0.0 | 0.0 | 0.00 | 0.07 | 0.07 | 96 | 1018.2 |
| 20260902005642 | 58 | 58 | 0.0 | 0.0 | 0.00 | 0.07 | 0.07 | 96 | 1017.9 |
| 20260902005410 | 58 | 58 | 0.0 | 0.0 | 0.00 | 0.07 | 0.07 | 95 | 1018.0 |
| 20260902004641 | 58 | 58 | 0.0 | 0.0 | 0.00 | 0.07 | 0.07 | 96 | 1017.9 |
| 20260902004347 | 58 | 58 | 0.0 | 0.0 | 0.00 | 0.07 | 0.07 | 96 | 1017.9 |
| 20260902003556 | 58 | 58 | 0.0 | 0.0 | 0.00 | 0.07 | 0.07 | 96 | 1017.8 |
| 20260902003058 | 58 | 58 | 0.0 | 0.0 | 0.00 | 0.07 | 0.07 | 95 | 1017.6 |
| 20260902002536 | 58 | 58 | 0.0 | 1.0 | 0.00 | 0.07 | 0.07 | 94 | 1017.4 |
| 20260902002005 | 58 | 58 | 0.0 | 1.0 | 0.00 | 0.07 | 0.07 | 94 | 1017.5 |
| 20260902001440 | 58 | 58 | 0.0 | 0.0 | 0.00 | 0.07 | 0.07 | 93 | 1017.5 |
| 20260902001211 | 58 | 58 | 0.0 | 0.0 | 0.00 | 0.07 | 0.07 | 93 | 1017.4 |
| 20260902000414 | 59 | 58 | 0.0 | 0.0 | 0.00 | 0.07 | 0.07 | 93 | 1017.3 |
| 20260901235905 | 59 | 58 | 0.0 | 0.0 | 0.00 | 0.07 | 0.07 | 93 | 1017.4 |
| 20260901235402 | 59 | 58 | 0.0 | 0.0 | 0.00 | 0.07 | 0.07 | 93 | 1017.3 |
| 20260901234856 | 60 | 58 | 0.0 | 0.0 | 0.00 | 0.07 | 0.07 | 93 | 1017.2 |
| 20260901234352 | 60 | 58 | 0.0 | 0.0 | 0.00 | 0.07 | 0.07 | 94 | 1017.3 |
| 20260901233827 | 60 | 58 | 0.0 | 0.0 | 0.00 | 0.07 | 0.07 | 93 | 1017.1 |
| 20260901233302 | 60 | 58 | 0.0 | 0.0 | 0.00 | 0.07 | 0.07 | 92 | 1016.9 |
| 20260901233028 | 60 | 58 | 0.0 | 0.0 | 0.00 | 0.07 | 0.07 | 91 | 1016.9 |
| 20260901232526 | 61 | 95 | 0.0 | 0.0 | 0.00 | 0.07 | 0.07 | 91 | 1016.7 |
| 20260901231732 | 61 | 95 | 0.0 | 0.0 | 0.00 | 0.07 | 0.07 | 90 | 1016.7 |
| 20260901231203 | 61 | 95 | 0.0 | 0.0 | 0.00 | 0.07 | 0.07 | 90 | 1016.7 |
| 20260901230929 | 62 | 95 | 0.0 | 0.0 | 0.00 | 0.07 | 0.07 | 90 | 1016.7 |
| 20260901230156 | 62 | 95 | 0.0 | 0.0 | 0.00 | 0.07 | 0.07 | 90 | 1016.6 |
| 20260901225653 | 62 | 95 | 0.0 | 0.0 | 0.00 | 0.07 | 0.07 | 89 | 1016.5 |
| 20260901225148 | 62 | 95 | 0.0 | 0.0 | 0.00 | 0.07 | 0.07 | 90 | 1016.4 |
| 20260901224855 | 63 | 95 | 0.0 | 0.0 | 0.00 | 0.07 | 0.07 | 90 | 1016.3 |
| 20260901224109 | 63 | 95 | 0.0 | 0.0 | 0.00 | 0.07 | 0.07 | 89 | 1016.3 |
| 20260901223610 | 63 | 95 | 0.0 | 0.0 | 0.00 | 0.07 | 0.07 | 89 | 1016.3 |
| 20260901223044 | 63 | 95 | 0.0 | 1.0 | 0.00 | 0.07 | 0.07 | 88 | 1016.1 |
| 20260901222520 | 64 | 95 | 1.0 | 2.0 | 0.00 | 0.07 | 0.07 | 88 | 1016.1 |
| 20260901221948 | 64 | 95 | 2.0 | 3.0 | 0.00 | 0.07 | 0.07 | 88 | 1016.0 |
| 20260901221424 | 64 | 105 | 1.0 | 3.0 | 0.00 | 0.07 | 0.07 | 88 | 1016.0 |
| 20260901220856 | 64 | 115 | 1.0 | 3.0 | 0.00 | 0.07 | 0.07 | 87 | 1016.0 |
| 20260901220349 | 64 | 111 | 0.0 | 3.0 | 0.00 | 0.07 | 0.07 | 87 | 1015.9 |
| 20260901215823 | 65 | 128 | 0.0 | 1.0 | 0.00 | 0.07 | 0.07 | 86 | 1015.9 |
| 20260901215257 | 65 | 128 | 0.0 | 1.0 | 0.00 | 0.07 | 0.07 | 85 | 1015.9 |
| 20260901214736 | 65 | 128 | 0.0 | 1.0 | 0.00 | 0.07 | 0.07 | 85 | 1015.8 |
| 20260901214210 | 65 | 128 | 0.0 | 3.0 | 0.00 | 0.07 | 0.07 | 84 | 1015.8 |
| 20260901213647 | 65 | 128 | 0.0 | 3.0 | 0.00 | 0.07 | 0.07 | 84 | 1015.8 |
| 20260901213147 | 66 | 85 | 1.0 | 3.0 | 0.00 | 0.07 | 0.07 | 83 | 1015.7 |
| 20260901212917 | 66 | 161 | 0.0 | 3.0 | 0.00 | 0.07 | 0.07 | 83 | 1015.5 |
| 20260901212146 | 66 | 168 | 0.0 | 1.0 | 0.00 | 0.07 | 0.07 | 81 | 1015.5 |
| 20260901211646 | 67 | 168 | 0.0 | 2.0 | 0.00 | 0.07 | 0.07 | 80 | 1015.5 |
| 20260901211146 | 67 | 168 | 0.0 | 2.0 | 0.00 | 0.07 | 0.07 | 80 | 1015.4 |
| 20260901210916 | 67 | 135 | 1.0 | 3.0 | 0.00 | 0.07 | 0.07 | 80 | 1015.2 |
| 20260901210142 | 67 | 145 | 0.0 | 3.0 | 0.00 | 0.07 | 0.07 | 79 | 1015.2 |
| 20260901205636 | 68 | 172 | 1.0 | 5.0 | 0.00 | 0.07 | 0.07 | 78 | 1015.2 |
| 20260901205127 | 68 | 219 | 1.0 | 9.0 | 0.00 | 0.07 | 0.07 | 77 | 1015.1 |
| 20260901204844 | 68 | 131 | 1.0 | 9.0 | 0.00 | 0.07 | 0.07 | 77 | 1015.2 |
| 20260901204112 | 69 | 137 | 1.0 | 3.0 | 0.00 | 0.07 | 0.07 | 77 | 1015.1 |
| 20260901203842 | 69 | 128 | 2.0 | 7.0 | 0.00 | 0.07 | 0.07 | 76 | 1015.0 |
| 20260901203045 | 69 | 231 | 2.0 | 7.0 | 0.00 | 0.07 | 0.07 | 76 | 1014.9 |
| 20260901202810 | 69 | 164 | 3.0 | 7.0 | 0.00 | 0.07 | 0.07 | 76 | 1014.9 |
| 20260901202032 | 69 | 116 | 2.0 | 8.0 | 0.00 | 0.07 | 0.07 | 77 | 1014.8 |
| 20260901201802 | 69 | 109 | 2.0 | 8.0 | 0.00 | 0.07 | 0.07 | 79 | 1014.8 |
| 20260901201019 | 69 | 267 | 2.0 | 6.0 | 0.00 | 0.07 | 0.07 | 79 | 1014.6 |
| 20260901200518 | 69 | 115 | 2.0 | 6.0 | 0.00 | 0.07 | 0.07 | 77 | 1014.6 |
| 20260901200016 | 69 | 126 | 2.0 | 10.0 | 0.00 | 0.07 | 0.07 | 77 | 1014.6 |
| 20260901195514 | 69 | 261 | 3.0 | 10.0 | 0.00 | 0.07 | 0.07 | 77 | 1014.5 |
| 20260901195008 | 70 | 142 | 2.0 | 7.0 | 0.00 | 0.07 | 0.07 | 77 | 1014.3 |
| 20260901194501 | 71 | 104 | 3.0 | 8.0 | 0.00 | 0.07 | 0.07 | 76 | 1014.2 |
| 20260901193935 | 71 | 110 | 4.0 | 9.0 | 0.00 | 0.07 | 0.07 | 75 | 1014.2 |
| 20260901193406 | 71 | 137 | 4.0 | 10.0 | 0.00 | 0.07 | 0.07 | 74 | 1014.0 |
| 20260901192900 | 71 | 100 | 3.0 | 10.0 | 0.00 | 0.07 | 0.07 | 74 | 1014.0 |
| 20260901192356 | 72 | 99 | 3.0 | 8.0 | 0.00 | 0.07 | 0.07 | 74 | 1013.9 |
| 20260901191853 | 72 | 163 | 2.0 | 6.0 | 0.00 | 0.07 | 0.07 | 73 | 1014.0 |
| 20260901191353 | 72 | 68 | 2.0 | 8.0 | 0.00 | 0.07 | 0.07 | 72 | 1013.9 |
| 20260901190854 | 73 | 249 | 2.0 | 8.0 | 0.00 | 0.07 | 0.07 | 71 | 1013.8 |
| 20260901190328 | 73 | 182 | 3.0 | 8.0 | 0.00 | 0.07 | 0.07 | 69 | 1013.9 |
| 20260901185810 | 73 | 117 | 3.0 | 8.0 | 0.00 | 0.07 | 0.07 | 71 | 1013.7 |
| 20260901185538 | 73 | 276 | 2.0 | 8.0 | 0.00 | 0.07 | 0.07 | 70 | 1013.7 |
| 20260901185418 | 73 | 205 | 3.0 | 8.0 | 0.00 | 0.07 | 0.07 | 70 | 1013.6 |
| 20260901184238 | 73 | 200 | 3.0 | 8.0 | 0.00 | 0.07 | 0.07 | 70 | 1013.5 |
| 20260901183730 | 72 | 258 | 3.0 | 9.0 | 0.00 | 0.07 | 0.07 | 70 | 1013.4 |
| 20260901183203 | 72 | 177 | 4.0 | 11.0 | 0.00 | 0.07 | 0.07 | 71 | 1013.5 |
| 20260901182653 | 72 | 251 | 5.0 | 11.0 | 0.00 | 0.07 | 0.07 | 71 | 1013.5 |
| 20260901182154 | 73 | 247 | 4.0 | 11.0 | 0.00 | 0.08 | 0.07 | 70 | 1013.4 |
| 20260901181649 | 73 | 111 | 3.0 | 11.0 | 0.00 | 0.08 | 0.07 | 69 | 1013.5 |
| 20260901181123 | 74 | 282 | 2.0 | 11.0 | 0.00 | 0.08 | 0.07 | 73 | 1013.4 |
| 20260901180556 | 73 | 270 | 3.0 | 9.0 | 0.00 | 0.08 | 0.07 | 73 | 1013.4 |
| 20260901180030 | 73 | 268 | 4.0 | 9.0 | 0.00 | 0.08 | 0.07 | 72 | 1013.3 |
| 20260901175528 | 72 | 187 | 4.0 | 8.0 | 0.00 | 0.08 | 0.07 | 75 | 1013.4 |
| 20260901175024 | 72 | 217 | 4.0 | 9.0 | 0.00 | 0.08 | 0.07 | 73 | 1013.4 |
| 20260901174754 | 72 | 243 | 4.0 | 9.0 | 0.00 | 0.08 | 0.07 | 72 | 1013.6 |
| 20260901173501 | 72 | 141 | 2.0 | 8.0 | 0.00 | 0.09 | 0.07 | 75 | 1013.5 |
| 20260901173002 | 71 | 195 | 2.0 | 5.0 | 0.00 | 0.09 | 0.07 | 77 | 1013.4 |